Simultaneous Nadir Overpasses (SNOs) Predictions

Prediction of SNOs between GOES-17 and METOP-B Satellite Orbit:

Table of predicted SNOs for the next 14.0 days since TLE Epoch: 2/18/2023
Index Date Time (GOES-17) GOES-17 Lat,Lon METOP-B Lat,Lon Distance(km) Time Diff (sec)
1 02/19/2023 04:28:01 0.01,-104.67 0.12,-104.12 62.18 80
2 02/20/2023 16:44:14 -0.01,-104.69 0.88,-108.68 454.80 80
3 02/21/2023 16:26:14 -0.01,-104.70 -0.21,-103.69 114.56 80
4 02/23/2023 04:42:36 0.01,-104.67 -0.77,-108.29 411.83 80
5 02/24/2023 04:24:36 0.01,-104.68 0.33,-103.30 157.70 80
6 02/25/2023 16:40:47 -0.01,-104.71 0.71,-107.85 358.83 80
7 02/26/2023 16:22:48 -0.01,-104.71 -0.39,-102.86 210.65 80
8 02/28/2023 04:39:08 0.02,-104.69 -0.63,-107.46 315.80 80
9 03/01/2023 04:21:09 0.02,-104.69 0.49,-102.46 253.66 80
10 03/02/2023 16:37:21 -0.02,-104.72 0.49,-107.03 262.99 80
11 03/03/2023 16:19:22 -0.02,-104.73 -0.63,-102.04 306.61 80
